Theta_e
294 293 293 293 293 294 295 296 301 299 301 302 303 305 307 307 308 309 310 309 310 312 311 309 309 312 312 312 313 311 311 311 311 311 310 310 310 310 310 309 310 311 314 314 314 313 314 305 306 307 306 303 302 302
293 293 292 292 293 294 295 296 300 301 302 303 303 304 306 307 308 309 309 309 310 310 312 309 308 308 308 310 313 311 313 312 312 311 311 309 310 310 312 311 310 313 310 312 311 310 307 307 307 307 306 305 304 303
293 293 293 292 293 293 295 296 299 303 302 303 304 303 306 307 308 309 310 311 311 312 311 311 311 308 307 308 309 312 311 310 311 311 313 310 310 311 310 310 310 309 309 310 311 308 307 307 306 306 305 305 303 302
293 293 293 292 293 293 294 296 298 303 303 304 305 304 304 306 307 308 309 310 311 310 313 313 310 310 308 308 308 309 309 308 308 309 310 310 310 310 311 310 310 309 308 309 309 306 307 306 307 306 304 303 303 301
293 293 292 292 292 293 295 298 299 303 303 305 305 305 303 304 306 309 309 309 311 312 312 312 310 310 310 309 309 309 310 311 310 310 310 309 309 310 308 309 310 307 308 310 309 307 308 308 306 305 305 303 303 302
293 293 292 292 293 294 296 300 299 302 304 305 306 305 303 304 307 310 311 309 308 312 312 312 310 310 310 311 311 310 310 311 310 310 310 310 309 311 310 311 309 307 306 307 307 306 307 306 306 305 305 304 302 301
293 293 292 292 293 295 297 300 299 303 305 305 305 305 307 307 309 311 312 308 306 311 312 313 312 310 310 311 311 312 311 310 310 311 310 310 309 310 309 311 310 306 306 305 306 307 308 306 306 304 304 304 302 301
293 292 292 292 294 295 298 301 300 304 305 304 306 306 308 308 308 309 307 306 308 311 311 311 311 312 310 312 313 312 313 312 311 311 311 310 309 308 310 308 310 307 306 306 306 306 306 305 305 304 304 303 303 302
292 292 292 293 295 295 298 301 302 303 306 306 306 306 309 311 311 310 307 310 311 311 313 312 315 314 310 312 312 314 315 315 312 313 312 310 308 308 307 307 309 309 308 307 307 307 307 306 305 305 305 304 304 302
292 292 293 295 294 296 299 302 304 303 303 304 308 312 313 310 308 310 313 313 311 311 312 312 311 313 312 313 315 315 314 315 315 313 312 314 308 306 307 309 311 311 308 307 309 308 307 306 306 306 305 304 303 302
292 293 295 295 294 297 301 303 305 305 307 310 312 312 310 307 311 311 312 313 312 312 312 312 312 312 311 313 315 314 315 314 314 312 312 312 314 312 309 310 310 310 310 307 307 308 308 307 307 307 305 304 303 302
293 294 296 294 295 300 303 305 307 310 309 308 310 309 310 310 311 311 311 312 312 311 311 311 312 311 311 311 314 314 314 312 312 308 309 313 311 311 310 309 310 310 311 311 309 308 307 307 307 306 305 305 304 303
295 295 295 295 300 302 304 306 306 307 307 311 311 311 311 310 315 312 312 313 311 309 310 310 314 312 312 312 314 313 313 313 309 310 311 312 307 308 310 309 309 310 310 310 310 309 308 307 306 307 306 305 305 304
297 296 295 298 301 303 305 306 306 308 311 312 311 310 312 312 311 310 310 310 309 308 309 311 313 313 313 313 313 314 311 310 311 310 314 309 308 307 307 306 308 310 310 310 310 310 308 309 307 307 306 305 305 305
297 296 297 301 302 303 305 306 307 312 311 311 311 314 311 310 310 310 309 310 310 310 310 312 312 312 312 312 312 312 311 310 311 313 310 309 308 307 307 307 307 308 309 309 310 310 309 308 309 309 308 308 307 306
295 298 300 301 302 303 304 307 311 312 310 311 311 311 311 311 310 311 309 311 310 310 311 311 312 312 312 312 312 312 311 312 311 309 308 308 308 307 307 305 306 307 308 308 309 309 308 308 308 308 308 308 308 308
298 301 301 302 302 303 305 310 311 310 311 311 311 311 311 311 311 310 310 310 309 311 311 309 311 311 311 312 311 311 313 309 309 308 308 308 307 307 305 305 304 304 305 306 306 307 307 307 305 306 307 307 308 309
301 304 302 302 303 307 308 310 309 310 311 311 311 311 311 311 310 310 310 310 312 311 309 309 310 311 312 310 312 312 309 308 308 307 307 305 305 305 304 304 304 304 304 304 304 304 305 306 306 305 305 306 307 308
302 302 302 302 302 307 308 309 311 311 311 311 311 311 311 311 311 311 311 310 309 309 310 310 310 311 313 311 314 308 308 308 309 307 305 304 305 305 304 304 303 304 304 304 303 303 303 305 306 305 304 305 305 306
301 303 302 303 304 308 307 309 310 311 311 310 311 311 311 311 310 310 310 310 310 310 310 311 312 312 311 310 310 309 308 307 308 307 306 305 304 303 304 304 304 304 303 303 303 301 302 304 304 304 305 304 304 305
304 304 304 306 307 307 308 309 310 310 311 311 311 311 312 311 311 310 310 310 310 310 310 309 309 309 308 308 307 307 306 307 306 306 306 306 303 303 304 304 304 304 304 303 303 303 303 303 304 303 305 304 303 304
304 302 307 304 305 306 308 307 310 309 310 310 310 311 312 313 312 311 310 310 309 309 309 309 309 309 309 308 308 309 307 307 307 305 303 303 305 305 305 305 305 304 304 303 302 302 303 303 302 302 303 304 303 303
304 305 305 304 305 308 308 307 309 308 309 309 309 309 311 311 311 310 311 310 311 310 309 309 309 309 308 309 308 307 307 307 307 307 306 306 306 305 305 305 304 304 304 303 302 302 302 302 303 302 303 303 303 302
303 305 305 305 306 307 307 308 307 307 308 308 307 307 308 309 309 310 310 311 310 310 310 309 309 308 308 309 309 308 308 308 307 307 307 307 306 306 305 304 304 304 303 302 302 301 301 302 302 303 302 302 301 302
307 306 306 305 306 307 306 306 307 307 307 307 306 307 308 308 309 309 309 310 309 309 309 309 309 309 309 308 307 308 307 307 306 307 307 306 305 305 305 304 304 303 301 301 300 301 301 302 302 301 301 301 301 300
305 305 312 307 306 307 306 306 306 306 306 305 306 307 308 309 308 308 309 308 308 309 308 309 309 305 307 307 307 307 306 306 306 306 306 305 304 304 303 302 301 300 299 298 300 301 301 301 301 300 300 300 300 300
305 305 307 306 307 306 307 306 306 306 306 306 307 306 307 306 308 307 307 308 308 308 307 307 308 307 306 307 307 306 305 306 306 305 304 303 303 301 300 299 299 298 296 298 300 300 300 299 299 298 298 298 298 298
306 308 307 307 308 307 307 306 305 306 307 307 306 306 305 306 308 307 306 306 307 307 307 307 307 307 307 306 306 305 305 304 304 303 304 304 303 301 299 298 297 295 296 298 297 299 299 298 298 298 298 298 297 297
307 308 308 308 307 308 308 307 306 306 307 307 307 307 307 307 306 306 306 306 305 306 306 306 306 306 305 305 305 305 304 304 303 304 305 304 303 301 299 299 298 298 297 297 297 297 297 297 297 297 297 297 297 296
307 308 308 308 307 307 308 307 307 307 307 307 307 307 307 307 307 306 306 305 305 305 305 306 305 305 305 306 306 306 305 304 303 303 303 303 302 300 300 299 299 299 299 299 300 299 298 298 298 297 298 297 297 296
308 308 308 308 308 307 307 307 306 306 306 307 307 308 308 308 306 306 306 306 305 305 305 305 305 306 306 306 306 306 306 305 303 302 302 302 301 301 300 300 299 299 299 300 300 299 299 298 298 298 298 297 297 296
308 309 309 308 308 308 307 308 308 308 308 309 309 309 308 308 308 307 307 306 307 306 305 304 305 306 306 306 306 306 304 304 304 303 301 302 302 301 300 300 299 299 299 299 299 298 298 298 298 298 298 297 296 296
309 309 308 308 308 307 307 307 307 308 308 308 308 308 308 308 308 307 308 307 307 307 307 307 307 306 307 306 305 305 303 304 302 301 301 301 301 300 299 299 299 299 299 299 299 298 298 298 298 298 297 297 296 295
Wind_Speed
9 10 12 14 16 18 21 23 22 21 20 20 23 19 20 24 23 24 24 25 28 15 16 21 21 16 10 11 7 5 5 4 6 3 2 2 4 5 7 7 3 5 5 4 5 4 2 14 5 6 6 7 5 9
7 9 12 13 14 16 19 21 21 19 18 19 20 21 13 16 13 15 21 17 23 22 14 21 22 19 13 9 7 4 5 6 7 3 3 3 6 4 5 3 11 3 4 3 3 3 2 4 5 3 3 8 10 12
7 9 11 12 13 15 17 20 19 17 16 16 18 19 15 18 22 18 13 8 17 13 13 15 14 20 20 19 15 1 7 5 3 8 6 3 7 6 4 6 2 3 5 1 5 3 4 8 9 7 7 10 9 8
6 8 11 12 12 13 16 18 16 15 14 15 15 12 12 8 13 17 14 12 12 13 9 9 14 20 17 18 22 21 15 11 11 8 6 5 6 4 6 6 5 4 4 4 5 8 6 8 10 9 7 11 11 8
6 7 10 11 11 13 15 16 14 12 13 15 18 8 6 9 10 8 11 12 11 6 9 9 17 15 15 15 16 15 11 10 9 8 9 7 6 3 5 4 6 5 3 4 4 2 1 7 9 11 10 10 11 10
5 7 9 10 11 13 15 15 11 9 10 10 19 19 7 3 6 5 6 11 14 10 2 4 7 12 12 12 15 13 10 10 4 6 5 4 8 3 3 4 7 5 2 2 3 3 1 4 6 10 8 7 10 10
5 7 8 9 10 12 14 15 10 8 7 8 9 12 17 16 8 6 5 2 4 7 1 4 5 5 5 2 11 10 13 6 4 5 4 5 6 6 2 2 7 2 4 2 4 4 6 7 6 6 4 4 7 9
5 7 8 8 10 12 14 14 8 6 5 5 6 8 8 4 7 12 10 5 5 4 3 3 3 3 6 3 2 6 4 6 5 3 3 3 2 1 1 4 10 2 1 1 3 3 3 3 7 3 4 4 7 8
5 6 7 8 10 12 13 14 7 3 2 3 5 2 2 4 4 6 4 7 5 5 2 3 3 2 2 1 0 3 2 3 3 5 3 3 1 1 3 9 10 5 3 1 1 3 3 3 5 8 9 9 9 8
5 6 6 8 10 12 13 13 7 1 2 4 4 6 3 4 4 5 4 3 2 4 3 5 2 1 3 4 1 2 2 3 2 3 4 2 2 8 6 6 9 9 5 4 3 1 3 4 5 5 6 8 8 7
5 5 6 8 11 12 13 12 8 1 3 3 2 3 3 3 4 1 2 3 1 3 3 5 5 3 3 1 2 1 1 2 2 3 2 3 5 9 11 6 9 8 6 5 3 5 7 1 3 4 3 4 5 5
4 4 5 8 11 13 13 11 6 4 4 4 3 0 2 2 3 2 2 3 4 2 4 3 3 2 1 2 3 2 1 1 3 1 4 3 5 11 12 12 11 9 7 7 10 4 5 2 1 0 1 1 3 2
4 4 5 8 11 12 11 9 6 2 1 1 3 1 3 2 5 2 2 4 3 3 4 2 2 1 1 3 4 1 2 3 3 4 1 3 6 6 5 4 7 10 6 9 6 8 10 2 2 1 2 2 2 1
4 4 4 8 12 11 9 8 6 2 3 2 1 3 1 3 4 3 3 2 0 1 2 3 3 2 3 2 2 2 1 3 3 2 1 2 7 7 9 9 2 3 5 5 6 3 5 12 6 3 1 3 4 7
4 2 5 9 11 9 7 7 5 3 4 2 1 0 3 3 4 4 2 1 1 2 3 3 2 2 3 1 2 2 2 4 1 3 3 6 4 6 8 9 10 8 8 7 4 3 2 8 9 8 7 8 9 10
2 3 6 11 9 7 8 3 4 2 1 1 1 3 5 2 2 3 2 2 3 1 2 2 3 3 1 1 1 4 3 1 3 4 5 5 4 6 7 9 10 11 12 10 11 10 7 9 11 9 10 10 9 12
4 2 8 8 7 5 7 2 1 2 1 1 3 3 7 4 3 2 1 2 1 2 2 2 3 3 1 1 2 2 2 4 5 4 6 4 4 5 8 9 9 9 10 10 10 10 9 10 11 10 13 15 12 10
2 5 7 8 7 4 1 3 1 1 1 3 2 3 4 4 4 0 2 2 1 2 0 2 2 5 3 2 1 4 2 4 3 3 4 3 3 5 8 8 8 9 10 10 10 9 9 9 15 7 12 15 12 10
4 6 7 8 6 3 3 2 5 0 4 2 1 2 2 2 3 0 2 2 3 3 1 0 2 1 2 3 6 4 4 1 4 3 5 3 1 4 8 8 8 8 9 8 9 10 11 6 8 9 9 11 13 14
4 6 8 6 5 3 1 2 3 1 2 1 2 1 2 3 3 0 1 1 1 1 3 2 2 3 3 4 3 5 6 1 2 3 3 5 2 2 4 8 9 8 8 7 9 4 11 11 9 10 10 9 12 11
3 4 5 4 2 2 4 3 1 4 2 2 2 2 2 2 4 3 3 2 3 2 2 3 5 6 5 5 5 3 3 4 6 5 5 4 5 3 4 6 8 9 10 10 11 10 7 10 10 11 10 12 13 9
3 5 2 3 2 1 2 2 4 2 2 1 2 1 1 3 2 3 1 3 1 2 2 3 5 8 7 6 6 2 2 3 3 4 6 6 10 3 8 8 7 11 12 10 10 11 11 10 11 12 10 13 12 8
3 4 2 1 1 1 3 3 2 2 2 4 3 0 1 1 2 2 1 3 3 3 2 4 2 3 3 6 7 5 4 3 4 7 5 4 5 4 5 8 9 10 11 12 11 11 12 11 7 9 11 14 14 13
5 3 2 1 2 1 1 0 1 2 3 3 4 4 4 4 4 1 1 1 1 4 10 10 5 5 3 5 1 5 3 6 7 6 5 9 11 5 7 7 8 11 9 12 11 11 12 12 11 10 12 13 14 15
3 2 2 3 2 3 2 1 1 2 3 4 4 2 4 3 3 3 3 4 4 2 2 3 4 11 2 7 9 3 12 12 3 6 1 7 8 9 10 12 13 11 9 11 11 11 12 12 11 12 12 13 12 13
1 4 2 1 2 2 1 2 1 3 3 2 1 3 2 2 2 3 2 3 4 6 8 5 3 10 13 6 3 6 6 8 5 6 5 8 7 10 13 13 12 10 11 11 10 10 11 13 10 8 9 6 5 10
3 3 3 1 1 1 2 2 1 2 2 2 2 3 2 3 5 3 3 5 4 4 6 3 6 7 2 1 3 5 5 5 4 6 7 8 7 6 8 10 10 10 10 9 8 10 10 11 11 12 12 11 10 10
3 2 5 5 2 1 3 2 1 2 1 0 2 1 3 2 1 3 4 4 3 4 0 4 6 2 3 1 4 3 2 0 2 5 5 4 4 3 7 8 6 8 5 5 7 10 9 11 11 12 11 11 10 9
4 4 3 5 3 2 2 2 2 1 1 1 1 2 1 2 5 7 5 2 3 3 5 7 3 6 3 4 2 6 3 4 4 3 6 5 7 9 8 8 8 7 7 3 3 2 4 8 7 9 10 10 9 10
4 4 4 3 4 3 2 2 3 2 2 4 4 3 4 7 6 5 6 8 9 6 5 4 4 5 5 3 4 5 6 3 5 6 8 7 7 6 6 7 7 7 6 7 3 4 4 7 7 6 7 10 10 11
1 4 3 3 3 2 2 2 5 7 7 6 8 5 5 5 6 4 2 5 8 9 7 6 6 3 7 7 3 5 3 4 1 1 3 5 5 5 6 6 6 7 6 6 5 4 6 6 6 6 7 9 9 10
4 5 3 4 3 2 3 5 5 5 5 6 6 6 4 4 5 2 3 3 5 5 3 6 7 6 10 5 5 4 3 1 1 2 2 4 6 7 8 7 6 5 5 4 4 3 3 4 4 5 7 7 9 10
4 4 4 3 3 3 4 3 4 4 5 5 5 5 6 5 2 1 3 3 5 6 3 1 4 5 4 5 1 1 3 3 2 5 8 7 6 7 7 7 6 7 7 7 7 7 7 7 8 10 10 10 10 10
Wind_Direction
43 32 26 22 23 22 22 21 23 27 30 33 33 46 64 65 70 73 62 77 92 86 66 56 46 31 19 17 26 100 196 190 213 291 79 145 120 81 87 55 32 28 313 28 337 359 35 3 0 29 296 307 308 345
43 31 25 22 22 21 21 20 23 30 35 34 37 40 60 63 74 72 79 74 74 85 90 68 56 40 36 21 337 104 99 40 7 348 90 147 135 159 139 107 69 63 10 356 48 45 254 331 255 334 275 302 6 9
44 32 24 22 22 21 19 17 23 29 33 34 36 44 77 91 69 64 62 49 102 109 74 49 38 39 44 40 22 128 63 119 72 27 48 64 77 6 58 65 83 62 39 90 145 70 10 355 14 31 8 11 17 17
45 29 22 21 21 20 16 15 20 28 33 35 30 40 65 100 65 57 54 19 20 91 86 72 62 51 50 51 58 75 89 85 106 105 92 62 95 57 73 78 52 29 326 21 102 36 288 27 357 28 41 18 358 348
43 26 20 20 19 18 14 12 18 30 37 39 26 31 98 77 84 68 56 37 34 347 105 108 71 50 52 58 70 74 75 83 72 78 88 78 74 54 101 102 49 31 48 2 41 21 230 301 327 3 358 30 344 344
38 23 19 20 19 16 13 11 20 34 43 49 40 47 85 81 47 221 114 47 20 16 116 75 94 51 55 62 68 58 59 44 58 79 73 76 55 312 54 75 356 75 50 26 343 359 356 3 324 350 7 7 341 352
32 20 19 19 18 14 13 14 27 37 54 48 41 48 59 60 46 26 38 29 31 334 294 124 115 58 20 7 61 60 81 74 62 66 45 33 28 21 32 32 305 67 105 112 70 7 13 30 340 345 358 339 315 11
27 18 18 20 14 12 14 15 26 38 60 49 40 49 41 37 69 60 35 49 28 286 346 22 103 143 3 27 77 77 32 72 63 84 115 82 112 44 133 297 321 74 181 168 56 23 15 0 335 1 60 13 346 41
22 17 18 17 10 11 13 14 22 37 43 2 349 337 306 359 55 46 2 37 37 345 62 72 15 32 342 45 53 84 54 73 65 79 92 89 35 41 253 293 294 274 209 169 359 332 17 348 334 7 10 27 26 36
16 16 19 11 7 8 11 10 12 6 350 348 309 231 101 22 326 284 238 190 68 21 65 58 89 21 33 355 255 93 96 148 122 91 110 80 217 222 232 274 291 279 210 192 254 108 331 353 19 17 23 20 32 44
11 15 15 7 3 5 7 7 14 14 344 269 337 52 52 338 253 288 73 13 26 87 38 41 40 349 52 26 330 198 142 190 96 114 96 32 7 29 8 320 242 243 298 282 248 295 326 303 337 8 35 18 45 53
5 13 7 2 0 1 2 7 32 26 15 27 37 8 249 299 21 331 50 117 30 79 31 35 11 10 10 12 273 227 260 141 78 119 67 2 2 33 23 20 39 10 344 324 280 276 278 305 143 304 357 9 57 54
4 5 0 0 359 0 2 11 26 55 63 276 246 16 31 106 26 56 25 38 39 4 357 348 318 282 250 239 267 335 43 63 105 56 129 245 36 45 87 91 339 332 321 333 325 15 351 305 185 232 179 233 264 281
358 353 356 357 359 1 9 18 23 4 281 320 71 14 0 17 65 92 98 140 319 142 314 334 309 294 276 208 321 32 66 52 48 71 257 250 38 15 8 6 281 278 295 321 357 25 77 320 336 298 266 255 239 264
350 6 3 353 352 358 4 10 16 5 316 20 27 98 63 83 108 78 58 80 128 303 315 316 288 265 263 104 8 67 93 61 114 202 170 63 24 10 2 3 357 359 10 20 21 2 276 265 305 291 274 285 269 274
29 30 342 344 348 354 355 357 10 299 359 5 273 122 121 161 122 111 57 354 307 307 272 264 275 269 156 268 129 36 76 173 215 76 68 96 40 16 358 3 4 356 15 8 6 10 2 355 358 344 323 297 314 265
68 9 332 348 350 358 13 322 297 28 9 249 99 35 38 16 51 5 33 224 219 283 279 40 311 356 41 198 82 60 201 106 98 97 76 54 16 8 0 2 3 2 352 353 354 349 348 338 339 9 334 347 347 337
37 342 343 354 355 324 346 311 359 310 122 96 220 85 55 35 92 89 161 84 60 272 322 257 322 46 18 88 174 246 116 90 55 45 50 55 35 11 11 7 359 3 359 357 351 338 330 357 330 2 356 359 355 18
334 355 1 4 3 316 332 60 316 72 41 42 55 78 45 68 105 152 13 68 11 335 59 33 77 138 153 172 208 151 126 70 112 128 120 144 51 11 11 2 5 4 338 343 341 353 334 316 292 331 7 359 346 357
355 9 5 9 15 294 285 84 278 300 123 332 295 124 15 33 52 277 123 327 272 107 30 30 122 134 176 102 15 53 62 120 236 192 160 133 64 340 29 353 2 323 327 343 348 6 345 326 346 343 23 345 312 8
353 320 351 8 358 350 343 297 103 356 8 195 264 9 241 217 241 201 135 223 263 123 149 149 132 98 67 95 116 162 122 352 15 344 356 339 13 327 317 358 347 346 343 354 356 348 328 343 342 334 5 320 339 6
345 349 319 357 317 340 299 27 338 41 254 252 271 202 298 287 269 304 0 253 19 67 107 130 108 147 164 173 167 207 169 198 210 195 195 225 254 327 358 337 349 348 343 350 353 336 338 360 345 319 324 326 337 349
342 332 254 306 314 72 257 275 304 345 314 334 334 2 190 344 268 272 285 3 23 31 161 128 137 195 269 138 208 209 221 284 3 313 277 298 319 302 321 329 348 340 342 349 336 343 334 325 340 313 342 324 344 347
350 302 307 284 198 245 228 278 308 287 293 355 342 336 19 357 319 296 23 64 263 38 29 349 251 252 290 314 96 356 287 262 302 321 342 320 311 350 314 321 332 335 358 329 335 338 334 329 319 348 354 359 347 354
276 313 169 278 241 224 225 234 248 274 333 8 325 340 19 341 304 35 49 20 30 87 166 247 348 14 104 66 315 344 356 325 31 311 340 271 331 337 328 335 331 346 355 337 333 337 333 326 6 355 6 353 353 337
291 195 214 206 161 260 357 282 325 340 321 307 346 322 356 304 286 53 75 356 4 29 33 36 59 49 298 332 24 328 322 0 343 27 314 330 350 344 340 336 337 343 359 337 331 331 337 347 349 344 328 341 284 322
247 200 180 259 301 143 278 253 15 262 270 298 12 336 306 317 24 15 37 14 23 19 90 129 176 231 122 54 338 321 0 357 351 351 346 341 357 3 356 349 345 349 333 327 330 330 347 352 354 354 349 343 355 356
259 239 216 179 193 281 295 294 270 268 294 114 260 274 328 44 256 293 23 27 7 318 117 162 254 293 289 7 274 311 279 57 246 283 329 313 270 44 1 348 342 341 337 340 342 331 4 357 354 347 350 347 350 350
231 201 212 203 200 223 244 265 266 286 31 262 267 295 248 265 318 300 309 298 256 266 271 280 323 259 256 239 272 297 345 306 318 334 315 342 353 11 358 351 349 343 341 310 262 282 355 344 350 351 349 345 347 342
217 184 218 213 202 247 211 193 268 323 293 298 324 307 272 261 276 280 284 280 271 261 264 267 254 257 279 237 221 278 296 310 323 349 7 3 2 356 349 349 346 340 342 324 331 183 326 312 294 301 341 350 5 350
166 199 233 234 240 248 281 292 275 268 271 274 272 265 277 291 296 258 291 291 289 291 279 274 280 327 283 274 311 292 299 297 90 49 356 335 337 344 336 331 333 334 332 332 335 346 349 339 1 3 16 10 11 2
198 205 232 239 237 226 261 258 252 257 264 261 254 251 239 234 246 207 129 283 283 301 300 293 311 321 308 285 290 267 242 295 179 218 282 319 325 319 307 308 320 328 329 334 330 337 345 339 352 350 349 354 353 355
194 216 227 259 260 253 230 232 259 255 253 241 252 238 237 249 284 141 145 245 294 312 325 319 289 307 280 288 257 226 263 256 233 253 256 270 300 302 286 283 292 294 292 298 302 303 297 309 333 336 344 341 339 341